Powrót do katalogu

GSAT 12

AktywnyŁącznośćGEO
NORAD 37746·PAYLOAD·🇮🇳 India

Wystrzelony Jul 15, 2011 z Satish Dhawan Space Centre

Loading…

TLE

ŚwieżeSource: Space-Track

Epoka: Sep 14, 2026, 14:00 UTC

1 37746U 11034A   26257.58350772  .00000019  00000-0  00000-0 0  9995
2 37746   5.5269  74.8721 0006376 164.1403   6.8070  0.98859481 44210

Śledź GSAT 12 w czasie rzeczywistym z AllMySat

Download on the App Store